Weather History for Port Angeles, WA

Change the Weather History Date:

Saturday, April 6, 2013

  Actual Average Record
Temperature  
Mean Temperature 50 °F -  
Max Temperature 54 °F 54 °F 74 °F (1955)
Min Temperature 45 °F 38 °F 25 °F (1975)
Degree Days  
Heating Degree Days 16    
Moisture  
Dew Point 44 °F    
Average Humidity 87    
Maximum Humidity 100    
Minimum Humidity 59    
Precipitation  
Precipitation 0.40 in - - ()
Sea Level Pressure  
Sea Level Pressure 29.79 in    
Wind  
Wind Speed 4 mph (SSW)    
Max Wind Speed 13 mph    
Max Gust Speed 17 mph    
Visibility 8 miles    
Events Rain    
Averages and records for this station are not official NWS values.
T = Trace of Precipitation, MM = Missing Value Source: NWS Daily Summary

Daily Weather History Graph

Daily Weather History Graph

Search for Another Location

Airport:

Trip Planner

Search our weather history database for the weather conditions in past years. The results will help you decide how hot, cold, wet, or windy it might be!

Date:

Astronomy

Apr. 06, 2013 Rise Set
Actual Time 6:41 AM PDT 7:52 PM PDT
Civil Twilight 6:09 AM PDT 8:24 PM PDT
Nautical Twilight 5:31 AM PDT 9:02 PM PDT
Astronomical Twilight 4:50 AM PDT 9:43 PM PDT
Moon 4:44 AM PDT (4/6) 4:12 PM PDT (4/6)
Length of Visible Light 14h 14m
Length of Day
13h 10m
Waning Crescent, 14% of the Moon is Illuminated
Apr 6
Waning Crescent
Apr 10
New
Apr 18
First Quarter
Apr 25
Full
May 2
Last Quarter

Hourly Weather History & Observations

Time (PDT) Temp. Windchill Dew Point Humidity Pressure Visibility Wind Dir Wind Speed Gust Speed Precip Events Conditions
12:53 AM 48.0 °F - 46.0 °F 93% 29.61 in 10.0 mi Calm Calm - 0.05 in Rain Light Rain
1:40 AM 48.0 °F - 46.0 °F 93% 29.60 in 10.0 mi Variable 3.5 mph - 0.01 in   Overcast
1:50 AM 46.4 °F 45.2 °F 46.4 °F 100% 29.60 in 2.5 mi NW 3.5 mph - 0.01 in Rain Light Rain
1:53 AM 46.9 °F - 46.0 °F 97% 29.61 in 1.8 mi NW 3.5 mph - 0.02 in Rain Light Rain
2:02 AM 46.9 °F - 46.0 °F 97% 29.61 in 3.0 mi Calm Calm - 0.01 in Rain Light Rain
2:11 AM 46.9 °F - 46.0 °F 97% 29.61 in 8.0 mi Calm Calm - 0.01 in Rain Light Rain
2:53 AM 46.9 °F - 46.0 °F 97% 29.64 in 8.0 mi West 8.1 mph - 0.04 in Rain Light Rain
3:53 AM 48.0 °F - 46.0 °F 93% 29.69 in 8.0 mi WSW 5.8 mph - 0.05 in Rain Light Rain
4:53 AM 46.9 °F - 45.0 °F 93% 29.73 in 8.0 mi NW 6.9 mph - 0.05 in Rain Light Rain
5:53 AM 46.0 °F 41.9 °F 44.1 °F 93% 29.75 in 10.0 mi WNW 8.1 mph - 0.05 in Rain Light Rain
6:53 AM 45.0 °F 40.6 °F 41.0 °F 86% 29.76 in 10.0 mi WSW 8.1 mph - 0.01 in   Overcast
7:53 AM 46.0 °F 41.9 °F 42.1 °F 86% 29.78 in 10.0 mi WNW 8.1 mph - 0.00 in   Mostly Cloudy
8:53 AM 46.0 °F 40.2 °F 41.0 °F 83% 29.81 in 10.0 mi West 12.7 mph - 0.01 in   Mostly Cloudy
9:53 AM 50.0 °F - 41.0 °F 71% 29.82 in 10.0 mi WSW 11.5 mph - N/A   Clear
10:53 AM 53.1 °F - 39.0 °F 59% 29.85 in 10.0 mi Variable 6.9 mph - N/A   Clear
11:53 AM 54.0 °F - 44.1 °F 69% 29.87 in 10.0 mi East 10.4 mph 17.3 mph N/A   Partly Cloudy
12:53 PM 52.0 °F - 44.1 °F 74% 29.88 in 10.0 mi East 9.2 mph - N/A   Mostly Cloudy
1:53 PM 53.1 °F - 44.1 °F 71% 29.88 in 10.0 mi East 10.4 mph - N/A   Mostly Cloudy
2:53 PM 50.0 °F - 41.0 °F 71% 29.88 in 10.0 mi ENE 4.6 mph - N/A   Mostly Cloudy
3:14 PM 48.0 °F - 42.1 °F 80% 29.89 in 1.8 mi Calm Calm - 0.03 in Rain Rain
3:22 PM 48.9 °F - 44.1 °F 83% 29.88 in 3.0 mi Calm Calm - 0.04 in Rain Light Rain
3:53 PM 50.0 °F - 44.1 °F 80% 29.88 in 10.0 mi SE 4.6 mph - 0.04 in   Overcast
4:33 PM 48.0 °F - 44.1 °F 86% 29.88 in 10.0 mi ENE 5.8 mph - N/A   Mostly Cloudy
4:53 PM 48.0 °F - 44.1 °F 86% 29.88 in 10.0 mi Calm Calm - 0.01 in Rain Light Rain
5:53 PM 46.0 °F - 43.0 °F 89% 29.89 in 10.0 mi Calm Calm - 0.04 in Rain Light Rain
6:16 PM 46.0 °F - 43.0 °F 89% 29.87 in 10.0 mi Calm Calm - 0.00 in Rain Light Rain
6:53 PM 46.0 °F 44.8 °F 43.0 °F 89% 29.87 in 10.0 mi SW 3.5 mph - 0.00 in   Mostly Cloudy
7:53 PM 46.0 °F - 43.0 °F 89% 29.85 in 10.0 mi Calm Calm - N/A   Overcast
8:53 PM 46.0 °F - 43.0 °F 89% 29.85 in 10.0 mi Calm Calm - N/A   Overcast
9:53 PM 45.0 °F 43.5 °F 43.0 °F 93% 29.83 in 10.0 mi SSE 3.5 mph - 0.00 in   Mostly Cloudy
10:38 PM 45.0 °F - 43.0 °F 93% 29.81 in 9.0 mi Calm Calm - N/A   Overcast
10:53 PM 46.0 °F 44.8 °F 44.1 °F 93% 29.81 in 6.0 mi East 3.5 mph - 0.01 in Rain Light Rain
11:15 PM 46.0 °F 43.9 °F 44.1 °F 93% 29.79 in 9.0 mi ESE 4.6 mph - 0.00 in Rain Light Rain
11:29 PM 46.0 °F 43.1 °F 43.0 °F 89% 29.78 in 10.0 mi SE 5.8 mph - 0.01 in Rain Light Rain
11:53 PM 45.0 °F 41.8 °F 43.0 °F 93% 29.77 in 8.0 mi ESE 5.8 mph - 0.02 in Rain Light Rain